Weather home | Your neighborhood | Marine | Radar | Hurricane | Almanac

Daily weather history


Statistical History for Saturday, February 23, 2013

Tampa Knight Airport, FL


  Actual Average (KTPA) Record (KTPA)
Temperature
Mean Temperature -  
Max Temperature 72 °F 87 °F (1949)
Min Temperature 54 °F 31 °F (1978)
Cooling Degree Days    
Growing Degree Days 23 (Base - )  
Moisture
Dew Point   
Average Humidity    
Maximum Humidity    
Minimum Humidity    
Precipitation
Precipitation - - ()
Wind
Wind Speed   
Max Wind Speed   
Max Gust Speed   
Visibility   
Events   
Averages and records for this station are not official NWS values.
Key: T is trace of precipitation, MM is missing value
Source: NWS Daily Summary
Seasonal Weather Averages
Time(EST)TemperatureDew PointHumidity Sea Level Pressure Visibility Wind DirectionWind SpeedGust SpeedPrecipitationEventsConditions
12:15 AM 68.0 °F 64.4 °F 88% 30.03 in 10.0 miles SSE 4.6 mph - N/A   Scattered Clouds
12:35 AM 68.0 °F 64.4 °F 88% 30.02 in 10.0 miles SSE 5.8 mph - N/A   Clear
12:55 AM 68.0 °F 64.4 °F 88% 30.02 in 10.0 miles SE 6.9 mph - N/A   Clear
1:15 AM 68.0 °F 64.4 °F 88% 30.01 in 10.0 miles SSE 6.9 mph - N/A   Clear
1:35 AM 68.0 °F 64.4 °F 88% 30.01 in 10.0 miles SSE 5.8 mph - N/A   Clear
1:55 AM 68.0 °F 64.4 °F 88% 30.01 in 10.0 miles SSE 6.9 mph - N/A   Clear
2:15 AM 68.0 °F 64.4 °F 88% 30.00 in 10.0 miles SSE 6.9 mph - N/A   Clear
2:35 AM 68.0 °F 64.4 °F 88% 30.00 in 10.0 miles SSE 8.1 mph - N/A   Clear
2:55 AM 68.0 °F 64.4 °F 88% 29.99 in 10.0 miles South 6.9 mph - N/A   Scattered Clouds
3:15 AM 68.0 °F 64.4 °F 88% 29.99 in 10.0 miles SSE 6.9 mph - N/A   Scattered Clouds
3:35 AM 68.0 °F 64.4 °F 88% 29.99 in 10.0 miles SSE 5.8 mph - N/A   Scattered Clouds
3:55 AM 68.0 °F 64.4 °F 88% 29.98 in 10.0 miles SSE 5.8 mph - N/A   Mostly Cloudy
4:15 AM 68.0 °F 64.4 °F 88% 29.98 in 10.0 miles SSE 5.8 mph - N/A   Mostly Cloudy
4:35 AM 68.0 °F 64.4 °F 88% 29.98 in 10.0 miles SSE 6.9 mph - N/A   Scattered Clouds
4:55 AM 68.0 °F 66.2 °F 94% 29.98 in 10.0 miles SSE 9.2 mph - N/A   Mostly Cloudy
5:15 AM 68.0 °F 66.2 °F 94% 29.98 in 10.0 miles South 10.4 mph - N/A   Mostly Cloudy
5:35 AM 69.8 °F 66.2 °F 88% 29.97 in 10.0 miles SSE 10.4 mph - N/A   Mostly Cloudy
5:55 AM 69.8 °F 66.2 °F 88% 29.98 in 10.0 miles South 11.5 mph - N/A   Overcast
6:15 AM 69.8 °F 66.2 °F 88% 29.98 in 10.0 miles South 10.4 mph 18.4 mph N/A   Overcast
6:35 AM 69.8 °F 66.2 °F 88% 29.98 in 10.0 miles South 11.5 mph - N/A   Overcast
6:55 AM 69.8 °F 66.2 °F 88% 29.98 in 10.0 miles South 8.1 mph - N/A   Overcast
7:15 AM 69.8 °F 66.2 °F 88% 29.99 in 10.0 miles South 6.9 mph - N/A   Overcast
7:35 AM 69.8 °F 66.2 °F 88% 29.99 in 10.0 miles South 6.9 mph - N/A   Overcast
7:55 AM 69.8 °F 66.2 °F 88% 30.00 in 10.0 miles South 10.4 mph - N/A   Overcast
8:15 AM 69.8 °F 66.2 °F 88% 30.01 in 10.0 miles South 8.1 mph - N/A   Overcast
8:35 AM 69.8 °F 68.0 °F 94% 30.01 in 10.0 miles South 5.8 mph - N/A   Overcast
8:55 AM 71.6 °F 68.0 °F 88% 30.02 in 10.0 miles SSW 8.1 mph - N/A   Overcast
9:15 AM 71.6 °F 68.0 °F 88% 30.02 in 10.0 miles South 6.9 mph - N/A   Overcast
9:35 AM 71.6 °F 68.0 °F 88% 30.01 in 10.0 miles South 5.8 mph - N/A   Overcast
9:55 AM 73.4 °F 68.0 °F 83% 30.01 in 10.0 miles SSW 6.9 mph - N/A   Overcast
10:15 AM 73.4 °F 68.0 °F 83% 30.01 in 10.0 miles SSW 6.9 mph - N/A   Overcast
10:35 AM 75.2 °F 68.0 °F 78% 30.01 in 10.0 miles SW 9.2 mph - N/A   Overcast
10:55 AM 77.0 °F 68.0 °F 74% 30.01 in 10.0 miles SSW 10.4 mph - N/A   Mostly Cloudy
11:15 AM 78.8 °F 68.0 °F 69% 30.01 in 10.0 miles SW 13.8 mph - N/A   Scattered Clouds
11:35 AM 78.8 °F 68.0 °F 69% 30.00 in 10.0 miles SW 16.1 mph 21.9 mph N/A   Clear
11:55 AM 78.8 °F 68.0 °F 69% 30.00 in 10.0 miles SW 16.1 mph 24.2 mph N/A   Clear
12:15 PM 78.8 °F 68.0 °F 69% 30.00 in 10.0 miles SW 18.4 mph 25.3 mph N/A   Clear
12:35 PM 78.8 °F 68.0 °F 69% 29.99 in 10.0 miles SW 16.1 mph 27.6 mph N/A   Clear
12:55 PM 78.8 °F 68.0 °F 69% 29.98 in 10.0 miles SW 17.3 mph 36.8 mph N/A   Clear
1:15 PM 78.8 °F 68.0 °F 69% 29.97 in 10.0 miles SW 17.3 mph 27.6 mph N/A   Clear
1:35 PM 78.8 °F 69.8 °F 74% 29.96 in 10.0 miles SW 13.8 mph 34.5 mph N/A   Clear
1:55 PM 78.8 °F 69.8 °F 74% 29.96 in 10.0 miles SW 13.8 mph 20.7 mph N/A   Clear
2:15 PM 78.8 °F 69.8 °F 74% 29.95 in 10.0 miles SW 18.4 mph 34.5 mph N/A   Clear
2:35 PM 78.8 °F 68.0 °F 69% 29.94 in 10.0 miles SW 15.0 mph 58.7 mph N/A   Clear
2:55 PM 78.8 °F 69.8 °F 74% 29.94 in 10.0 miles SW 16.1 mph 35.7 mph N/A   Clear
3:15 PM 78.8 °F 69.8 °F 74% 29.94 in 10.0 miles SW 17.3 mph 26.5 mph N/A   Clear
3:35 PM 78.8 °F 69.8 °F 74% 29.93 in 10.0 miles SW 16.1 mph 38.0 mph N/A   Clear
3:55 PM 78.8 °F 69.8 °F 74% 29.93 in 10.0 miles SW 16.1 mph 24.2 mph N/A   Scattered Clouds
4:15 PM 78.8 °F 69.8 °F 74% 29.92 in 10.0 miles SW 12.7 mph 19.6 mph N/A   Clear
4:35 PM 77.0 °F 69.8 °F 78% 29.92 in 10.0 miles SW 12.7 mph 18.4 mph N/A   Clear
4:55 PM 77.0 °F 69.8 °F 78% 29.92 in 10.0 miles WSW 12.7 mph - N/A   Clear
5:15 PM 75.2 °F 69.8 °F 83% 29.92 in 10.0 miles WSW 8.1 mph - N/A   Clear
5:35 PM 73.4 °F 69.8 °F 88% 29.93 in 10.0 miles WSW 9.2 mph - N/A   Scattered Clouds
5:55 PM 73.4 °F 69.8 °F 88% 29.93 in 10.0 miles WSW 9.2 mph - N/A   Scattered Clouds
6:15 PM 73.4 °F 68.0 °F 83% 29.94 in 5.0 miles WSW 6.9 mph - N/A   Haze
6:35 PM 71.6 °F 68.0 °F 88% 29.95 in 7.0 miles WSW 6.9 mph - N/A   Mostly Cloudy
6:55 PM 71.6 °F 68.0 °F 88% 29.95 in 5.0 miles SW 8.1 mph - N/A   Overcast
7:15 PM 71.6 °F 68.0 °F 88% 29.96 in 5.0 miles SW 8.1 mph - N/A   Overcast
7:35 PM 71.6 °F 68.0 °F 88% 29.96 in 3.0 miles SW 6.9 mph - N/A   Overcast
7:55 PM 69.8 °F 68.0 °F 94% 29.96 in 2.0 miles SW 6.9 mph - N/A   Overcast
8:15 PM 69.8 °F 68.0 °F 94% 29.95 in 3.0 miles SW 6.9 mph - N/A   Overcast
8:35 PM 69.8 °F 68.0 °F 94% 29.96 in 5.0 miles SW 10.4 mph - N/A   Overcast
8:55 PM 69.8 °F 68.0 °F 94% 29.96 in 5.0 miles SW 6.9 mph - N/A   Overcast
9:15 PM 69.8 °F 66.2 °F 88% 29.96 in 5.0 miles SW 10.4 mph - N/A   Overcast
9:35 PM 69.8 °F 66.2 °F 88% 29.97 in 5.0 miles SW 8.1 mph - N/A   Overcast
9:55 PM 69.8 °F 66.2 °F 88% 29.97 in 5.0 miles SW 6.9 mph - N/A   Overcast
10:15 PM 69.8 °F 66.2 °F 88% 29.97 in 5.0 miles SW 8.1 mph - N/A   Overcast
10:35 PM 68.0 °F 66.2 °F 94% 29.97 in 4.0 miles SW 8.1 mph - N/A   Overcast
11:15 PM 68.0 °F 66.2 °F 94% 29.98 in 1.0 miles SW 4.6 mph - N/A   Overcast
11:35 PM 68.0 °F 66.2 °F 94% 29.96 in 0.5 miles SSW 8.1 mph - N/A Fog Fog
11:55 PM 68.0 °F 66.2 °F 94% 29.96 in 0.5 miles SW 9.2 mph - N/A Fog Fog
ADVERTISEMENT
Enter city or zip code to search weather conditions:


  • 490 First Avenue South
  • St. Petersburg, FL 33701
  • 727-893-8111